Location: Ostrava
(49.8330°N, 18.2830°E)
Time: 19:49:15
(UTC+02:00)

Cosmos 1400 Rocket - Visible Passes

Search period start: 29 April 2016 00:00
Search period end: 09 May 2016 00:00
Orbit: 524 x 571 km, 81.2° (Epoch: 28 April)

Date Brightness Start Highest point End Pass type
(mag) Time Alt. Az. Time Alt. Az. Time Alt. Az.
29 Apr 4.8 00:10:36 10° NW 00:13:22 20° W 00:13:22 20° W visible
29 Apr 3.3 22:28:27 10° N 22:32:19 43° ENE 22:32:53 40° E visible
30 Apr 4.9 00:05:44 10° NW 00:08:31 18° W 00:08:34 18° W visible
30 Apr 3.2 22:23:26 10° N 22:27:20 47° ENE 22:28:07 41° ESE visible
01 May 5.0 00:00:53 10° NW 00:03:29 17° W 00:03:48 17° W visible
01 May 3.1 22:18:26 10° N 22:22:21 51° ENE 22:23:21 40° ESE visible
01 May 5.0 23:56:03 10° NW 23:58:28 16° W 23:59:02 15° W visible
02 May 3.0 22:13:26 10° N 22:17:23 56° ENE 22:18:37 38° SE visible
02 May 5.1 23:51:14 10° NW 23:53:26 14° W 23:54:18 14° W visible
03 May 2.9 22:08:26 10° N 22:12:24 61° ENE 22:13:53 34° SE visible
03 May 5.3 23:46:28 10° NW 23:48:24 13° W 23:49:34 12° WSW visible
04 May 2.8 22:03:26 10° N 22:07:25 66° ENE 22:09:10 31° SSE visible
04 May 5.4 23:41:45 10° WNW 23:43:22 12° W 23:44:51 10° WSW visible
05 May 2.7 21:58:27 10° N 22:02:25 73° ENE 22:04:29 27° SSE visible
05 May 5.5 23:37:06 10° WNW 23:38:20 11° W 23:39:33 10° WSW visible
06 May 2.7 21:53:27 10° N 21:57:26 79° ENE 21:59:48 23° SSE visible
06 May 5.6 23:32:43 10° WNW 23:33:17 10° W 23:33:51 10° W visible
07 May 2.7 21:48:28 10° NNW 21:52:26 86° ENE 21:55:09 19° SSE visible
08 May 2.7 21:43:29 10° NNW 21:47:27 87° WSW 21:50:32 16° S visible
